When you browse on this site, cookies collect data to enhance your experience and personalize the content and advertising you see.
Visit our Privacy Policy to learn more. By continuing to use the site, you agree to this use of cookies and data.
  • In Slovakia
  • List of Countries
  • For 7 days
  • Water Temperature
  • Satellite Maps
  • Weather Map
  • Weather Widgets
  • user-avatar
    Login

    Hourly Weather Hannover

    Today, 16 January, Wednesday

    Time Temperature Precipitation Wind Pressure Humidity
    00:00 +5°C° 0 mm 8 mps 753 mmHg 85%
    01:00 +5°C° 0 mm 6 mps 753 mmHg 86%
    02:00 +5°C° 0.1 mm 6 mps 752 mmHg 85%
    03:00 +4°C° 0.1 mm 6 mps 752 mmHg 84%
    04:00 +4°C° 0.1 mm 7 mps 752 mmHg 84%
    05:00 +4°C° 0 mm 7 mps 752 mmHg 83%
    06:00 +5°C° 0 mm 7 mps 751 mmHg 83%
    07:00 +6°C° 0 mm 5 mps 751 mmHg 85%
    08:00 +4°C° 0 mm 6 mps 751 mmHg 84%
    09:00 +4°C° 0 mm 6 mps 751 mmHg 83%
    10:00 +4°C° 0 mm 7 mps 751 mmHg 82%
    11:00 +4°C° 0 mm 7 mps 750 mmHg 79%
    12:00 +5°C° 0 mm 7 mps 750 mmHg 76%
    13:00 +5°C° 0 mm 6 mps 750 mmHg 76%
    14:00 +5°C° 0 mm 6 mps 749 mmHg 74%
    15:00 +4°C° 0 mm 6 mps 749 mmHg 73%
    16:00 +4°C° 0 mm 6 mps 748 mmHg 72%
    17:00 +4°C° 0.1 mm 6 mps 748 mmHg 72%
    18:00 +4°C° 0.1 mm 6 mps 747 mmHg 73%
    19:00 +3°C° 0.1 mm 6 mps 747 mmHg 74%
    20:00 +3°C° 0.1 mm 6 mps 746 mmHg 74%
    21:00 +3°C° 0.1 mm 6 mps 746 mmHg 74%
    22:00 +3°C° 0.1 mm 6 mps 745 mmHg 74%
    23:00 +3°C° 0.3 mm 6 mps 744 mmHg 74%

    Tomorrow, 17 January, Thursday

    Time Temperature Precipitation Wind Pressure Humidity
    00:00 +3°C° 0.3 mm 7 mps 744 mmHg 74%
    01:00 +3°C° 0.3 mm 7 mps 743 mmHg 74%
    02:00 +3°C° 0.6 mm 7 mps 743 mmHg 76%
    03:00 +3°C° 0.6 mm 7 mps 743 mmHg 79%
    04:00 +2°C° 0.6 mm 8 mps 743 mmHg 81%
    05:00 +3°C° 0.1 mm 7 mps 743 mmHg 81%
    06:00 +3°C° 0.1 mm 6 mps 743 mmHg 82%
    07:00 +3°C° 0.1 mm 5 mps 744 mmHg 82%
    08:00 +3°C° 0 mm 6 mps 744 mmHg 81%
    09:00 +2°C° 0 mm 6 mps 744 mmHg 80%
    10:00 +2°C° 0 mm 7 mps 745 mmHg 79%
    11:00 +3°C° 0 mm 6 mps 744 mmHg 77%
    12:00 +3°C° 0 mm 6 mps 744 mmHg 74%
    13:00 +4°C° 0 mm 6 mps 744 mmHg 72%
    14:00 +3°C° 0.5 mm 6 mps 744 mmHg 73%
    15:00 +3°C° 0.5 mm 6 mps 744 mmHg 75%
    16:00 +2°C° 0.5 mm 6 mps 744 mmHg 76%
    17:00 +2°C° 0.1 mm 6 mps 745 mmHg 73%
    18:00 +1°C° 0.1 mm 6 mps 746 mmHg 70%
    19:00 -1°C° 0.1 mm 6 mps 746 mmHg 67%
    20:00 -1°C° 0 mm 6 mps 747 mmHg 69%
    21:00 -1°C° 0 mm 6 mps 748 mmHg 70%
    22:00 -2°C° 0 mm 6 mps 749 mmHg 71%
    23:00 -1°C° 0.1 mm 5 mps 750 mmHg 72%

    Day after tomorrow, 18 January, Friday

    Time Temperature Precipitation Wind Pressure Humidity
    00:00 -1°C° 0.1 mm 5 mps 751 mmHg 74%
    01:00 -1°C° 0.1 mm 5 mps 752 mmHg 75%
    02:00 -2°C° 0 mm 5 mps 752 mmHg 75%
    03:00 -2°C° 0 mm 4 mps 753 mmHg 74%
    04:00 -3°C° 0 mm 4 mps 754 mmHg 74%
    05:00 -2°C° 0 mm 3 mps 755 mmHg 77%
    06:00 -2°C° 0 mm 3 mps 756 mmHg 80%
    07:00 -2°C° 0 mm 3 mps 756 mmHg 82%
    08:00 -1°C° 0 mm 3 mps 757 mmHg 80%
    09:00 -1°C° 0 mm 3 mps 758 mmHg 78%
    10:00 -1°C° 0 mm 3 mps 758 mmHg 76%
    11:00 0°C° 0 mm 3 mps 758 mmHg 71%
    12:00 +1°C° 0 mm 3 mps 758 mmHg 67%
    13:00 +2°C° 0 mm 3 mps 759 mmHg 62%
    14:00 +2°C° 0 mm 3 mps 759 mmHg 64%
    15:00 +1°C° 0 mm 3 mps 759 mmHg 66%
    16:00 +2°C° 0 mm 2 mps 759 mmHg 69%
    17:00 +1°C° 0 mm 2 mps 759 mmHg 71%
    18:00 0°C° 0 mm 3 mps 759 mmHg 73%
    19:00 -1°C° 0 mm 3 mps 759 mmHg 75%
    20:00 -1°C° 0 mm 2 mps 759 mmHg 74%
    21:00 -1°C° 0 mm 2 mps 759 mmHg 73%
    22:00 -1°C° 0 mm 2 mps 760 mmHg 72%
    23:00 -1°C° 0 mm 2 mps 760 mmHg 71%

    19 January, Saturday

    Time Temperature Precipitation Wind Pressure Humidity
    00:00 -1°C° 0 mm 2 mps 759 mmHg 71%
    01:00 -1°C° 0 mm 2 mps 759 mmHg 71%
    02:00 +1°C° 0 mm 1 mps 759 mmHg 70%
    03:00 0°C° 0 mm 1 mps 759 mmHg 70%
    04:00 0°C° 0 mm 1 mps 759 mmHg 69%
    05:00 0°C° 0 mm 1 mps 759 mmHg 68%
    06:00 0°C° 0 mm 1 mps 759 mmHg 68%
    07:00 0°C° 0 mm 1 mps 758 mmHg 67%
    08:00 0°C° 0 mm 1 mps 758 mmHg 65%
    09:00 -1°C° 0 mm 2 mps 758 mmHg 62%
    10:00 -1°C° 0 mm 2 mps 758 mmHg 60%
    11:00 +1°C° 0 mm 2 mps 758 mmHg 55%
    12:00 +2°C° 0 mm 2 mps 758 mmHg 50%
    13:00 +2°C° 0 mm 2 mps 757 mmHg 45%
    14:00 +2°C° 0 mm 2 mps 757 mmHg 48%
    15:00 +2°C° 0 mm 2 mps 757 mmHg 51%
    16:00 +1°C° 0 mm 2 mps 756 mmHg 53%
    17:00 -1°C° 0 mm 2 mps 756 mmHg 56%
    18:00 -1°C° 0 mm 3 mps 756 mmHg 58%
    19:00 -2°C° 0 mm 3 mps 756 mmHg 61%
    20:00 -2°C° 0 mm 3 mps 756 mmHg 60%
    21:00 -2°C° 0 mm 3 mps 756 mmHg 60%
    22:00 -2°C° 0 mm 2 mps 756 mmHg 59%
    23:00 -3°C° 0 mm 2 mps 756 mmHg 61%

    20 January, Sunday

    Time Temperature Precipitation Wind Pressure Humidity
    00:00 -3°C° 0 mm 2 mps 756 mmHg 62%
    01:00 -3°C° 0 mm 2 mps 756 mmHg 63%
    02:00 -3°C° 0 mm 2 mps 756 mmHg 64%
    03:00 -3°C° 0 mm 2 mps 756 mmHg 66%
    04:00 -3°C° 0 mm 2 mps 756 mmHg 67%
    05:00 -3°C° 0 mm 2 mps 756 mmHg 68%
    06:00 -3°C° 0 mm 2 mps 756 mmHg 70%
    07:00 -3°C° 0 mm 2 mps 756 mmHg 71%
    08:00 -4°C° 0 mm 3 mps 757 mmHg 70%
    09:00 -4°C° 0 mm 3 mps 757 mmHg 69%
    10:00 -2°C° 0 mm 3 mps 758 mmHg 68%
    11:00 -2°C° 0 mm 3 mps 758 mmHg 65%
    12:00 -1°C° 0 mm 3 mps 758 mmHg 62%
    13:00 0°C° 0 mm 3 mps 758 mmHg 59%
    14:00 0°C° 0 mm 3 mps 758 mmHg 61%
    15:00 -1°C° 0 mm 2 mps 758 mmHg 62%
    16:00 -1°C° 0 mm 2 mps 759 mmHg 64%
    17:00 -2°C° 0 mm 2 mps 759 mmHg 65%
    18:00 -2°C° 0 mm 2 mps 760 mmHg 65%
    19:00 -3°C° 0 mm 2 mps 760 mmHg 66%
    20:00 -3°C° 0 mm 2 mps 761 mmHg 65%
    21:00 -3°C° 0 mm 2 mps 761 mmHg 64%
    22:00 -3°C° 0 mm 2 mps 762 mmHg 63%
    23:00 -1°C° 0 mm 1 mps 762 mmHg 62%

    21 January, Monday

    Time Temperature Precipitation Wind Pressure Humidity
    00:00 -1°C° 0 mm 1 mps 762 mmHg 61%
    01:00 -1°C° 0 mm 1 mps 762 mmHg 60%
    02:00 -1°C° 0 mm 1 mps 762 mmHg 60%
    03:00 -1°C° 0 mm 1 mps 762 mmHg 60%
    04:00 -1°C° 0 mm 1 mps 763 mmHg 60%
    05:00 -1°C° 0 mm 1 mps 763 mmHg 61%
    06:00 -1°C° 0 mm 1 mps 763 mmHg 63%
    07:00 -1°C° 0 mm 1 mps 763 mmHg 65%
    08:00 -1°C° 0 mm 1 mps 764 mmHg 66%
    09:00 -1°C° 0 mm 1 mps 764 mmHg 68%
    10:00 0°C° 0 mm 1 mps 764 mmHg 70%
    11:00 0°C° 0 mm 1 mps 764 mmHg 70%
    12:00 +1°C° 0 mm 1 mps 764 mmHg 70%
    13:00 +2°C° 0 mm 1 mps 764 mmHg 70%
    14:00 +1°C° 0 mm 1 mps 764 mmHg 73%
    15:00 +1°C° 0 mm 1 mps 763 mmHg 76%
    16:00 +1°C° 0 mm 1 mps 763 mmHg 79%
    17:00 -2°C° 0 mm 2 mps 763 mmHg 82%
    18:00 -2°C° 0 mm 2 mps 763 mmHg 84%
    19:00 -3°C° 0 mm 2 mps 763 mmHg 87%
    20:00 -3°C° 0 mm 2 mps 763 mmHg 87%
    21:00 -3°C° 0 mm 2 mps 762 mmHg 87%
    22:00 -3°C° 0 mm 2 mps 762 mmHg 86%
    23:00 -3°C° 0 mm 2 mps 761 mmHg 86%
    Show more